Regional Weather Roundup
Issued by NWS

Home | Current Version | Previous Version | Text Only | Print | Product List | Glossary On
Versions: 1 2 3 4 5 6 7 8 9 10 11 12 13 14 15 16 17 18 19 20 21 22 23 24 25 26 27 28 29 30 31 32 33 34 35 36 37 38 39 40 41 42 43 44 45 46 47 48 49 50
000
ASCA44 KEWX 250320
RWRMX

LATIN AMERICA AND CARIBBEAN REGIONAL WEATHER ROUNDUP
NATIONAL WEATHER SERVICE AUSTIN/SAN ANTONIO TX
1000 PM CDT TUE APR 24 2018

NOTE: "FAIR" INDICATED FEW OR NO CLOUDS BELOW 12,000 FEET WITH NO
SIGNIFICANT WEATHER AND/OR OBSTRUCTIONS TO VISIBILITY.

BAJA CALIFORNIA

CITY           SKY/WX    TMP DP  RH WIND       PRES   REMARKS
LA PAZ         MOCLDY    79  39  24 MISG      29.93
MEXICALI       MOCLDY    82  41  23 SE6       29.82S
S.J. DEL CABO  MOCLDY    79  27  14 CALM      29.93R
TIJUANA        MOCLDY    59  54  82 W8        30.03S

NORTHWESTERN MEXICO

CITY           SKY/WX    TMP DP  RH WIND       PRES   REMARKS
CULIACAN       CLOUDY    75  57  53 CALM      29.89R
DURANGO        PTCLDY    72  28  20 S6        30.19R
GUAYMAS          N/A    N/A N/A N/A MISG        N/A
HERMOSILLO     PTCLDY    90  32  12 SW8       29.90R
CD. JUAREZ     MOCLDY    81  19  10 CALM      30.00R
LOS MOCHIS     PTCLDY    73  41  31 W6        29.89R

NORTHEASTERN MEXICO

CITY           SKY/WX    TMP DP  RH WIND       PRES   REMARKS
CHIHUAHUA      CLEAR     73  21  14 SE6       30.03R
MONCLOVA         N/A    N/A N/A N/A MISG        N/A
MONTERREY      CLOUDY    75  66  73 SE14      30.01R
REYNOSA          N/A    N/A N/A N/A MISG        N/A
SALTILLO       PTCLDY    63  46  55 NE12      30.18F
TORREON        CLOUDY    82  54  36 SE7       30.00R
CD. VICTORIA   TSTM      72  70  94 W6        30.01F

WESTERN MEXICO

CITY           SKY/WX    TMP DP  RH WIND       PRES   REMARKS
AGUASCALIENTES PTCLDY    72  27  18 SW7       30.20R
COLIMA         PTCLDY    75  57  53 CALM      30.05R
DEL BAJIO      MOCLDY    77  37  24 SW7       30.23R
GUADALAJARA    PTCLDY    79  34  19 W10       30.15R
MAZATLAN       PTCLDY    72  66  83 N3        29.91R
P. VALLARTA    CLEAR     77  77 100 SE3       29.93R
URUAPAN          N/A    N/A N/A N/A MISG        N/A
ZACATECAS      MOCLDY    75  28  17 W8        30.25R

CENTRAL MEXICO

CITY           SKY/WX    TMP DP  RH WIND       PRES   REMARKS
CUERNAVACA       N/A    N/A N/A N/A MISG        N/A
MEXICO CITY    CLOUDY    64  48  55 N18       30.38R
MORELIA        PTCLDY    72  52  49 W6          N/A
POZA RICA        N/A    N/A N/A N/A MISG        N/A
QUERETARO      PTCLDY    66  57  72 SE17      30.32R
S. LUIS POTOSI MOCLDY    64  52  63 SE10      30.22S
TAMPICO        MOCLDY    77  75  94 MISG      30.00R
TOLUCA         CLOUDY    59  46  63 NW5       30.43R

SOUTHERN MEXICO

CITY           SKY/WX    TMP DP  RH WIND       PRES   REMARKS
ACAPULCO       MOCLDY    81  75  83 W5        29.88R
B. DE HUATULCO MOCLDY   N/A N/A N/A CALM      29.93
P. ESCONDIDO     N/A    N/A N/A N/A MISG        N/A
VERACRUZ       CLOUDY    79  75  89 NE3       29.97R
ZIHUATANEJO      N/A    N/A N/A N/A MISG        N/A

YUCATAN PENINSULA

CITY           SKY/WX    TMP DP  RH WIND       PRES   REMARKS
CAMPECHE       CLEAR     81  73  78 E12       29.93R
CHETUMAL       PTCLDY    82  75  78 E12       29.99R
CD. DEL CARMEN   N/A    N/A N/A N/A MISG        N/A
COZUMEL        CLOUDY    79  75  89 SE6       30.00R
MERIDA         PTCLDY    75  72  88 E6        30.00R
MINATITLAN     CLEAR     81  77  89 N12       29.94R
TAPACHULA      PTCLDY    81  73  78 CALM      29.89R

CENTRAL AMERICA

CITY           SKY/WX    TMP DP  RH WIND       PRES   REMARKS
MANAGUA        PTCLDY    84  73  70 SE9       29.86R HX  91

CARIBBEAN

CITY           SKY/WX    TMP DP  RH WIND       PRES   REMARKS
ARUBA          PTCLDY    81  75  83 E18       29.92S
CURACAO          N/A     81  73  78 E14       29.94S
KINGSTON       PTCLDY    81  75  83 N7        29.97R
SAN JUAN       PTCLDY    79  72  78 E7        30.06S
ST. CROIX      CLEAR     77  72  83 NE7       30.06R
ST. THOMAS     CLEAR     79  72  78 E10       30.05F

$$




USA.gov is the U.S. government's official web portal to all federal, state and local government web resources and services.